Regional Weather Roundup
Issued by NWS Kansas City/Pleasant Hill, MO

Home | Current Version | Previous Version | Text Only | Print | Product List | Glossary On
Versions: 1 2 3 4 5 6 7 8 9 10 11 12 13 14 15 16 17 18 19 20 21 22 23 24 25 26 27 28 29 30 31 32 33 34 35 36 37 38 39 40 41 42 43 44 45 46 47 48 49 50
000
ASUS43 KEAX 280210
RWREAX

WEATHER ROUNDUP FOR EASTERN KANSAS AND NORTHWEST MISSOURI
NATIONAL WEATHER SERVICE KANSAS CITY/PLEASANT HILL MO
900 PM CDT THU AUG 27 2015

KSZ040-057-103>105-MOZ028-029-037-043-280300-
...KANSAS CITY METROPOLITAN AREA...

CITY           SKY/WX    TMP DP  RH WIND       PRES   REMARKS
K.C. INTL      CLOUDY    70  52  52 S10       30.00R
K.C. DOWNTOWN  PTCLDY    73  65  75 SE5       29.99R
LEES SUMMIT    CLEAR     70  64  81 SE5       30.01R
OLATHE - IXD   MOCLDY    70  67  90 SE8       30.00R
OLATHE - OJC   MOCLDY    68  66  93 SE6       30.00R
LAWRENCE       CLOUDY    71  67  87 SE9       29.98R

$$

MOZ001>008-011>017-020>025-030>033-038>040-044>046-053-054-280300-
...NORTHERN AND CENTRAL MISSOURI...

CITY           SKY/WX    TMP DP  RH WIND       PRES   REMARKS
ST. JOSEPH     MOCLDY    71  65  81 SE12      29.98R
MOSBY          PTCLDY    70  63  78 CALM      29.99R
WARRENSBURG    PTCLDY    70  63  78 SE6       30.01R
WHITEMAN AFB   PTCLDY    70  64  79 S7        30.01R
CLINTON          N/A     72  66  83 SE6       30.02S FOG
SEDALIA        MOCLDY    69  62  78 SE8       30.03R
WARSAW         NOT AVBL
CHILLICOTHE      N/A     70  62  76 SE6       30.01R
KIRKSVILLE     MOCLDY    67  59  75 SE8       30.05S

$$

MOZ041-047>049-056>058-063>065-088>090-097-280300-
...EASTERN AND SOUTHERN MISSOURI...

CITY           SKY/WX    TMP DP  RH WIND       PRES   REMARKS
ST. LOUIS INTL PTCLDY    72  57  59 SE9       30.07S
SPIRIT OF STL  CLEAR     68  62  81 CALM      30.06S
COLUMBIA       CLEAR     67  63  87 E7        30.05R
JEFFERSON CITY CLEAR     68  62  81 E5        30.05R
ROLLA          CLEAR     65  60  84 SE7       30.05S
OSAGE BEACH    CLEAR     66  59  77 CALM      30.06R
SPRINGFIELD    PTCLDY    69  62  78 SE8       30.06R
BRANSON        CLOUDY    68  63  83 SE5       30.07R
JOPLIN         PTCLDY    72  66  81 S9        30.01R
WEST PLAINS    PTCLDY    67  58  72 CALM      30.09R

$$

IAZ060-094-KSZ022-034>040-054-083-096-NEZ052-066-093-280300-
...KANSAS...SOUTHEAST NEBRASKA AND IOWA...

CITY           SKY/WX    TMP DP  RH WIND       PRES   REMARKS
TOPEKA         CLOUDY    73  67  81 E12       29.96R
MANHATTAN      CLOUDY    78  65  63 S9        29.91R
EMPORIA        CLOUDY    73  65  75 SE12      29.95R
CHANUTE        CLOUDY    73  67  81 S13       29.99R
WICHITA        CLOUDY    81  66  60 SE16G26   29.91F
OMAHA          CLOUDY    75  67  76 SE17      29.91S
LINCOLN        CLOUDY    79  64  60 S13       29.89R
FALLS CITY     CLOUDY    72  68  87 SE8       29.96R
LAMONI         MOCLDY    68  62  81 E6        30.00R
DES MOINES     MOCLDY    70  60  70 SE13      30.00F

$$




USA.gov is the U.S. government's official web portal to all federal, state and local government web resources and services.